Flag for Portugal Weather past 2 weeks in Leiria, Portugal

Now
50 °F

Sunny.


Feels Like: 50 °F
Forecast: 36 / 61 °F
Wind: 2 mph from North

Location: Monte Real Mil.

Current Time: Jan 25, 2015 at 11:24:28 AM

Latest Report: Jan 25, 2015 at 11:00 AM


Visibility: 10 mi

Pressure: 30.45 "Hg

Humidity: 76%

Dew point: 43 °F

Location of LeiriaLocation

Historic Weather in Leiria — Graph

°F

Leiria temperature yesterday

Maximum temperature yesterday: 57 °F (at 2:00 PM)
Minimum temperature yesterday: 43 °F (at 11:00 PM)
Average temperature yesterday: 51 °F

Past Weeks' High & Low Weather Summary

 TemperatureHumidityPressure
High68 °F (Jan 10, 2:00 PM)100% (Jan 10, 10:00 PM)30.63 "Hg (Jan 10, 10:00 PM)
Low36 °F (Jan 21, 4:00 AM)38% (Jan 10, 2:00 PM)29.83 "Hg (Jan 18, 3:00 AM)
Average49 °F86%30.20 "Hg
* Reported Jan 10 10:00 AM — Jan 25 10:00 AM, Leiria, Weather by CustomWeather, © 2014

Note: Actual official high and low records may vary slightly from our data, if they occured in-between our weather recording intervals... More about our weather records

Advertising

Leiria weather history for previous 24 hours

 ConditionsComfort  
Time TempWeatherWind HumidityBarometerVisibility
10:00 AM
Jan 25
41 °FSunny.2 mph93%30.45 "Hg10 mi
9:00 AM36 °FSunny.2 mph93%30.45 "Hg10 mi
8:00 AM36 °FClear.No wind100%30.42 "Hg4 mi
7:00 AM36 °FClear.2 mph100%30.42 "Hg4 mi
6:00 AM37 °FClear.2 mph100%30.39 "Hg4 mi
5:00 AM37 °FClear.2 mph100%30.39 "Hg4 mi
4:00 AM37 °FClear.2 mph100%30.39 "Hg4 mi
3:00 AM39 °FClear.1 mph93%30.42 "Hg4 mi
2:00 AM39 °FClear.2 mph100%30.42 "Hg4 mi
1:00 AM41 °FClear.2 mph100%30.42 "Hg4 mi
12:00 AM43 °FClear.2 mph93%30.42 "Hg4 mi
11:00 PM
Jan 24
43 °FClear.1 mph100%30.42 "Hg4 mi
10:00 PM46 °FClear.2 mph93%30.42 "Hg4 mi
9:00 PM46 °FClear.5 mph93%30.42 "Hg10 mi
8:00 PM48 °FClear.5 mph87%30.42 "Hg10 mi
7:00 PM50 °FClear.6 mph88%30.39 "Hg10 mi
6:00 PM52 °FSunny.6 mph82%30.39 "Hg10 mi
5:00 PM55 °FSunny.8 mph72%30.36 "Hg10 mi
4:00 PM57 °FPassing clouds.9 mph51%30.36 "HgN/A
3:00 PM57 °FSunny.13 mph55%30.36 "Hg10 mi
2:00 PM57 °FPassing clouds.9 mph55%30.36 "HgN/A
1:00 PM55 °FSunny.9 mph59%30.39 "Hg10 mi
12:00 PM54 °FSunny.10 mph54%30.42 "Hg10 mi
11:00 AM52 °FPassing clouds.6 mph67%30.42 "HgN/A
Weather by CustomWeather, © 2014

See weather overviewHow to use our weather pages